Terminal Aerodrome Forecast
Issued by NWS Boston, MA

Home | Current Version | Previous Version | Text Only | Print | Product List | Glossary On
Versions: 1 2 3 4 5 6 7 8 9 10 11 12 13 14 15 16 17 18 19 20 21 22 23 24 25 26 27 28 29 30 31 32 33 34 35 36 37 38 39 40 41 42 43
000
FTUS41 KBOX 280538
TAFBDL
TAF
KBDL 280538Z 2806/2912 18008KT P6SM BKN070 OVC150
     FM281200 20010KT 4SM -SHRA OVC045
     FM281600 20010KT P6SM OVC050
     FM281700 26010KT P6SM OVC035
     FM281900 29011G17KT P6SM OVC080
     FM290200 32005KT P6SM SCT130=

USA.gov is the U.S. government's official web portal to all federal, state and local government web resources and services.